Location: Darmstadt
(49.8706°N, 8.6494°E)
Time: 07:02:49
(UTC+01:00)

CZ-4C R/B - Pass Details

Date: 31 October 2020
Orbit: 623 x 1378 km, 63.4° (Epoch: 02 December)

Event Time Altitude Azimuth Distance (km) Brightness Sun altitude
Rises 18:57:46 0° 314° (NW) 3,656 6.2 -18.8°
Reaches altitude 10° 19:00:16 10° 320° (NW) 2,815 5.4 -19.2°
Maximum altitude 19:06:51 50° 36° (NE) 1,452 3.1 -20.3°
Enters shadow 19:09:55 34° 89° (E) 1,910 3.4 -20.8°
